EN

Hourly Weather Lugovye

Today, 25 November, Wednesday

Time Temperature Precipitation Wind Pressure Humidity
00:00 +3°C° 0.2 mm 4 mps 748 mmHg 91%
01:00 +3°C° 0.2 mm 4 mps 748 mmHg 91%
02:00 +3°C° 0.2 mm 4 mps 747 mmHg 90%
03:00 +4°C° 0.4 mm 4 mps 747 mmHg 90%
04:00 +3°C° 0.4 mm 5 mps 747 mmHg 91%
05:00 +3°C° 0.4 mm 5 mps 747 mmHg 91%
06:00 +3°C° 0.2 mm 5 mps 747 mmHg 90%
07:00 +3°C° 0.2 mm 5 mps 747 mmHg 90%
08:00 +5°C° 0.2 mm 5 mps 747 mmHg 90%
09:00 +5°C° 0.2 mm 5 mps 747 mmHg 89%
10:00 +6°C° 0.2 mm 5 mps 747 mmHg 89%
11:00 +6°C° 0.2 mm 5 mps 748 mmHg 89%
12:00 +6°C° 0 mm 4 mps 748 mmHg 89%
13:00 +7°C° 0 mm 4 mps 748 mmHg 89%
14:00 +7°C° 0 mm 4 mps 749 mmHg 89%
15:00 +8°C° 0.1 mm 3 mps 749 mmHg 90%
16:00 +7°C° 0.1 mm 3 mps 749 mmHg 91%
17:00 +7°C° 0.1 mm 3 mps 749 mmHg 92%
18:00 +7°C° 0 mm 3 mps 749 mmHg 93%
19:00 +6°C° 0 mm 2 mps 750 mmHg 94%
20:00 +6°C° 0 mm 2 mps 750 mmHg 95%
21:00 +5°C° 0.1 mm 3 mps 750 mmHg 95%
22:00 +7°C° 0.1 mm 3 mps 750 mmHg 95%
23:00 +7°C° 0.1 mm 3 mps 750 mmHg 95%

Tomorrow, 26 November, Thursday

Time Temperature Precipitation Wind Pressure Humidity
00:00 +7°C° 0 mm 3 mps 750 mmHg 95%
01:00 +7°C° 0 mm 3 mps 750 mmHg 94%
02:00 +7°C° 0 mm 3 mps 750 mmHg 94%
03:00 +5°C° 0 mm 3 mps 750 mmHg 93%
04:00 +5°C° 0 mm 3 mps 749 mmHg 93%
05:00 +5°C° 0 mm 3 mps 749 mmHg 93%
06:00 +4°C° 0 mm 3 mps 749 mmHg 89%
07:00 +3°C° 0 mm 3 mps 749 mmHg 85%
08:00 +2°C° 0 mm 3 mps 749 mmHg 81%
09:00 +1°C° 0 mm 4 mps 749 mmHg 76%
10:00 +1°C° 0 mm 4 mps 749 mmHg 71%
11:00 +1°C° 0 mm 4 mps 748 mmHg 66%
12:00 +1°C° 0 mm 4 mps 748 mmHg 68%
13:00 +1°C° 0 mm 4 mps 748 mmHg 69%
14:00 +1°C° 0 mm 4 mps 748 mmHg 70%
15:00 0°C° 0 mm 4 mps 747 mmHg 73%
16:00 0°C° 0 mm 4 mps 747 mmHg 77%
17:00 0°C° 0 mm 3 mps 747 mmHg 80%
18:00 0°C° 0 mm 3 mps 746 mmHg 81%
19:00 0°C° 0 mm 3 mps 746 mmHg 83%
20:00 0°C° 0 mm 3 mps 746 mmHg 84%
21:00 0°C° 0 mm 3 mps 746 mmHg 85%
22:00 0°C° 0 mm 3 mps 746 mmHg 86%
23:00 -1°C° 0 mm 3 mps 745 mmHg 86%

Day after tomorrow, 27 November, Friday

Time Temperature Precipitation Wind Pressure Humidity
00:00 -1°C° 0 mm 3 mps 745 mmHg 88%
01:00 -1°C° 0 mm 3 mps 745 mmHg 89%
02:00 -1°C° 0 mm 3 mps 745 mmHg 90%
03:00 -1°C° 0 mm 3 mps 744 mmHg 90%
04:00 -2°C° 0 mm 4 mps 744 mmHg 90%
05:00 -1°C° 0 mm 4 mps 744 mmHg 90%
06:00 -1°C° 0.1 mm 4 mps 744 mmHg 91%
07:00 -1°C° 0.1 mm 4 mps 744 mmHg 92%
08:00 0°C° 0.1 mm 4 mps 744 mmHg 92%
09:00 0°C° 0.4 mm 4 mps 744 mmHg 93%
10:00 +2°C° 0.4 mm 3 mps 744 mmHg 94%
11:00 +2°C° 0.4 mm 3 mps 744 mmHg 94%
12:00 +2°C° 0.1 mm 3 mps 744 mmHg 93%
13:00 +3°C° 0.1 mm 4 mps 744 mmHg 92%
14:00 +3°C° 0.1 mm 4 mps 744 mmHg 91%
15:00 +3°C° 0 mm 3 mps 744 mmHg 90%
16:00 +3°C° 0 mm 3 mps 744 mmHg 90%
17:00 +2°C° 0 mm 3 mps 744 mmHg 89%
18:00 +2°C° 0.1 mm 3 mps 745 mmHg 87%
19:00 +1°C° 0.1 mm 4 mps 745 mmHg 85%
20:00 +1°C° 0.1 mm 4 mps 746 mmHg 82%
21:00 0°C° 0.1 mm 4 mps 746 mmHg 85%
22:00 0°C° 0.1 mm 4 mps 746 mmHg 88%
23:00 0°C° 0.1 mm 3 mps 746 mmHg 91%

28 November, Saturday

Time Temperature Precipitation Wind Pressure Humidity
00:00 -1°C° 0 mm 3 mps 747 mmHg 91%
01:00 -1°C° 0 mm 3 mps 747 mmHg 91%
02:00 -1°C° 0 mm 2 mps 747 mmHg 91%
03:00 -1°C° 0 mm 2 mps 748 mmHg 91%
04:00 -1°C° 0 mm 2 mps 748 mmHg 91%
05:00 -1°C° 0 mm 2 mps 748 mmHg 91%
06:00 -1°C° 0 mm 2 mps 749 mmHg 91%
07:00 -1°C° 0 mm 2 mps 749 mmHg 91%
08:00 -1°C° 0 mm 2 mps 750 mmHg 90%
09:00 -1°C° 0 mm 2 mps 750 mmHg 89%
10:00 0°C° 0 mm 3 mps 751 mmHg 88%
11:00 0°C° 0 mm 3 mps 751 mmHg 86%
12:00 0°C° 0 mm 3 mps 751 mmHg 84%
13:00 0°C° 0 mm 3 mps 752 mmHg 83%
14:00 0°C° 0 mm 3 mps 752 mmHg 81%
15:00 0°C° 0 mm 3 mps 752 mmHg 85%
16:00 -1°C° 0 mm 3 mps 753 mmHg 89%
17:00 -1°C° 0 mm 3 mps 753 mmHg 93%
18:00 -1°C° 0.1 mm 3 mps 753 mmHg 94%
19:00 -1°C° 0.1 mm 3 mps 754 mmHg 94%
20:00 -1°C° 0.1 mm 3 mps 754 mmHg 95%
21:00 -1°C° 0.1 mm 3 mps 754 mmHg 95%
22:00 0°C° 0.1 mm 3 mps 754 mmHg 95%
23:00 0°C° 0.1 mm 3 mps 755 mmHg 96%

29 November, Sunday

Time Temperature Precipitation Wind Pressure Humidity
00:00 -1°C° 0.1 mm 3 mps 755 mmHg 95%
01:00 -1°C° 0.1 mm 3 mps 755 mmHg 95%
02:00 -2°C° 0.1 mm 4 mps 755 mmHg 95%
03:00 -2°C° 0.1 mm 4 mps 755 mmHg 95%
04:00 -2°C° 0.1 mm 4 mps 755 mmHg 95%
05:00 -2°C° 0.1 mm 4 mps 755 mmHg 95%
06:00 -2°C° 0.1 mm 4 mps 756 mmHg 94%
07:00 -2°C° 0.1 mm 4 mps 756 mmHg 93%
08:00 -2°C° 0.1 mm 4 mps 756 mmHg 92%
09:00 -1°C° 0 mm 4 mps 756 mmHg 90%
10:00 -1°C° 0 mm 4 mps 756 mmHg 87%
11:00 -1°C° 0 mm 4 mps 757 mmHg 84%
12:00 -1°C° 0 mm 4 mps 756 mmHg 83%
13:00 -1°C° 0 mm 4 mps 756 mmHg 81%
14:00 -1°C° 0 mm 5 mps 756 mmHg 80%
15:00 -1°C° 0 mm 5 mps 756 mmHg 80%
16:00 -2°C° 0 mm 5 mps 756 mmHg 81%
17:00 -2°C° 0 mm 5 mps 756 mmHg 82%
18:00 -2°C° 0 mm 5 mps 756 mmHg 83%
19:00 -2°C° 0 mm 5 mps 756 mmHg 83%
20:00 -4°C° 0 mm 5 mps 756 mmHg 84%
21:00 -4°C° 0 mm 5 mps 756 mmHg 85%
22:00 -4°C° 0 mm 6 mps 756 mmHg 85%
23:00 -4°C° 0 mm 6 mps 756 mmHg 86%

30 November, Monday

Time Temperature Precipitation Wind Pressure Humidity
00:00 -4°C° 0.1 mm 6 mps 755 mmHg 87%
01:00 -4°C° 0.1 mm 6 mps 755 mmHg 88%
02:00 -4°C° 0.1 mm 6 mps 755 mmHg 89%
03:00 -4°C° 0.3 mm 6 mps 754 mmHg 90%
04:00 -4°C° 0.3 mm 6 mps 754 mmHg 92%
05:00 -4°C° 0.3 mm 6 mps 754 mmHg 94%
06:00 -3°C° 0.3 mm 6 mps 754 mmHg 94%
07:00 -3°C° 0.3 mm 6 mps 754 mmHg 93%
08:00 -2°C° 0.3 mm 6 mps 754 mmHg 93%
09:00 -1°C° 0.1 mm 6 mps 754 mmHg 92%
10:00 0°C° 0.1 mm 5 mps 755 mmHg 91%
11:00 +1°C° 0.1 mm 5 mps 755 mmHg 90%
12:00 +1°C° 0 mm 4 mps 755 mmHg 90%
13:00 +1°C° 0 mm 4 mps 755 mmHg 89%
14:00 +3°C° 0 mm 4 mps 755 mmHg 88%
15:00 +1°C° 0 mm 4 mps 755 mmHg 90%
16:00 +1°C° 0 mm 4 mps 756 mmHg 91%
17:00 +1°C° 0 mm 4 mps 756 mmHg 93%
18:00 +1°C° 0.1 mm 4 mps 756 mmHg 94%
19:00 +1°C° 0.1 mm 4 mps 756 mmHg 95%
20:00 +1°C° 0.1 mm 4 mps 756 mmHg 96%
21:00 +3°C° 0.1 mm 4 mps 757 mmHg 96%
22:00 +3°C° 0.1 mm 4 mps 757 mmHg 95%
23:00 +3°C° 0.1 mm 4 mps 757 mmHg 95%
Show more